Location: Hengforden
(52.3167°N, 6.1333°E)
Time: 16:22:24
(UTC+00:00)

Cosmos 2263 Rocket - Pass Details

Date: 14 June 2025
Orbit: 822 x 848 km, 71.0° (Epoch: 20 July)

Event Time Altitude Azimuth Distance (km) Brightness Sun altitude
Rises 23:25:44 0° 245° (WSW) 3,398 5.1 -14.3°
Reaches altitude 10° 23:28:27 10° 256° (WSW) 2,469 4.5 -14.4°
Maximum altitude 23:33:28 32° 318° (NW) 1,438 3.9 -14.4°
Drops below altitude 10° 23:38:32 10° 20° (NNE) 2,485 5.8 -14.4°
Sets 23:41:17 0° 31° (NNE) 3,423 6.5 -14.4°
